Latest Coastal Weather Observations for Esperance Harbour

IDW60701

Issued at 1:52 am WST Sunday 29 March 2015 (issued every 10 minutes, with the page automatically refreshed every 10 minutes)

About coastal observations | Map of coastal stations | Coastal observations for WA | Marine services | Other Formats
Station Details ID: 109504 Name: ESPERANCE NTC AWS Lat: -33.87 Lon: 121.90 Height: 0.0 m
Data from the previous 72 hours. | See also: Recent months for locations in Western Australia
Date/Time
WST
Temp

°C
Wind Pressure Rain
since 9am
mm
Weather Cloud Vis
km
Sea
Height
m
Swell
Dir
 
Speed
knots
Gust
knots
hPa Trend Height
m
Period
s
Dir
29/01:30am 14.8 - - - 1021.0 - - - - - - - - -
29/01:00am 15.3 - - - 1021.0 - - - - - - - - -
29/12:30am 15.8 - - - 1020.9 - - - - - - - - -
29/12:00am 16.2 - - - 1020.8 - - - - - - - - -
 
Date/Time
WST
Temp

°C
Wind Pressure Rain
since 9am
mm
Weather Cloud Vis
km
Sea
Height
m
Swell
Dir
 
Speed
knots
Gust
knots
hPa Trend Height
m
Period
s
Dir
28/11:30pm 18.2 - - - 1020.7 - - - - - - - - -
28/11:00pm 18.7 - - - 1020.8 - - - - - - - - -
28/10:30pm 18.9 - - - 1020.9 - - - - - - - - -
28/10:00pm 19.0 - - - 1021.1 - - - - - - - - -
28/09:30pm 19.0 - - - 1021.1 - - - - - - - - -
28/09:00pm 19.0 - - - 1021.1 - - - - - - - - -
28/08:30pm 19.1 - - - 1020.8 - - - - - - - - -
28/08:00pm 19.2 - - - 1020.6 - - - - - - - - -
28/07:30pm 19.4 - - - 1020.4 - - - - - - - - -
28/07:00pm 19.5 - - - 1020.1 - - - - - - - - -
28/06:30pm 19.8 - - - 1019.8 - - - - - - - - -
28/06:00pm 19.8 - - - 1019.6 - - - - - - - - -
28/05:30pm 20.1 - - - 1019.4 - - - - - - - - -
28/05:00pm 20.3 - - - 1019.3 - - - - - - - - -
28/04:30pm 20.9 - - - 1019.1 - - - - - - - - -
28/04:00pm 20.5 - - - 1019.1 - - - - - - - - -
28/03:30pm 20.7 - - - 1019.0 - - - - - - - - -
28/03:00pm 20.7 - - - 1018.8 - - - - - - - - -
28/02:30pm 21.5 - - - 1018.7 - - - - - - - - -
28/02:00pm 22.0 - - - 1018.4 - - - - - - - - -
28/01:30pm 21.6 - - - 1018.4 - - - - - - - - -
28/01:00pm 21.5 - - - 1018.6 - - - - - - - - -
28/12:30pm 20.8 - - - 1018.7 - - - - - - - - -
28/12:00pm 20.6 - - - 1018.9 - - - - - - - - -
28/11:30am 21.3 - - - 1019.2 - - - - - - - - -
28/11:00am 20.6 - - - 1019.6 - - - - - - - - -
28/10:30am 20.4 - - - 1019.7 - - - - - - - - -
28/10:00am 20.3 - - - 1019.8 - - - - - - - - -
28/09:30am 20.2 - - - 1019.7 - - - - - - - - -
28/09:00am 19.1 - - - 1019.9 - - - - - - - - -
28/08:30am 17.8 - - - 1019.7 - - - - - - - - -
28/08:00am 16.8 - - - 1019.7 - - - - - - - - -
28/07:30am 14.9 - - - 1019.9 - - - - - - - - -
28/07:00am 14.2 - - - 1019.8 - - - - - - - - -
28/06:30am 13.7 - - - 1019.6 - - - - - - - - -
28/06:00am 13.9 - - - 1019.4 - - - - - - - - -
28/05:30am 14.5 - - - 1019.2 - - - - - - - - -
28/05:00am 14.7 - - - 1019.0 - - - - - - - - -
28/04:30am 14.6 - - - 1018.5 - - - - - - - - -
28/04:00am 15.6 - - - 1018.4 - - - - - - - - -
28/03:30am 16.0 - - - 1018.6 - - - - - - - - -
28/03:00am 16.1 - - - 1018.6 - - - - - - - - -
28/02:30am 16.5 - - - 1018.5 - - - - - - - - -
28/02:00am 16.2 - - - 1019.0 - - - - - - - - -
28/01:30am 16.8 - - - 1018.8 - - - - - - - - -
28/01:00am 16.9 - - - 1019.1 - - - - - - - - -
28/12:30am 16.9 - - - 1019.1 - - - - - - - - -
28/12:00am 17.2 - - - 1019.4 - - - - - - - - -
 
Date/Time
WST
Temp

°C
Wind Pressure Rain
since 9am
mm
Weather Cloud Vis
km
Sea
Height
m
Swell
Dir
 
Speed
knots
Gust
knots
hPa Trend Height
m
Period
s
Dir
27/11:30pm 17.4 - - - 1019.6 - - - - - - - - -
27/11:00pm 17.4 - - - 1019.9 - - - - - - - - -
27/10:30pm 17.9 - - - 1020.3 - - - - - - - - -
27/10:00pm 18.2 - - - 1020.5 - - - - - - - - -
27/09:30pm 18.4 - - - 1020.7 - - - - - - - - -
27/09:00pm 17.7 - - - 1020.9 - - - - - - - - -
27/08:30pm 17.7 - - - 1021.0 - - - - - - - - -
27/08:00pm 18.4 - - - 1020.8 - - - - - - - - -
27/07:30pm 18.8 - - - 1020.6 - - - - - - - - -
27/07:00pm 19.4 - - - 1020.3 - - - - - - - - -
27/06:30pm 19.6 - - - 1019.6 - - - - - - - - -
27/06:00pm 20.1 - - - 1019.5 - - - - - - - - -
27/05:30pm 21.0 - - - 1019.1 - - - - - - - - -
27/05:00pm 21.7 - - - 1019.3 - - - - - - - - -
27/04:30pm 21.6 - - - 1019.4 - - - - - - - - -
27/04:00pm 21.9 - - - 1019.7 - - - - - - - - -
27/03:30pm 22.1 - - - 1020.0 - - - - - - - - -
27/03:00pm 23.1 - - - 1020.0 - - - - - - - - -
27/02:30pm 23.2 - - - 1020.1 - - - - - - - - -
27/02:00pm 23.7 - - - 1020.0 - - - - - - - - -
27/01:30pm 23.6 - - - 1020.4 - - - - - - - - -
27/01:00pm 23.5 - - - 1021.0 - - - - - - - - -
27/12:30pm 22.7 - - - 1021.4 - - - - - - - - -
27/12:00pm 22.5 - - - 1021.9 - - - - - - - - -
27/11:30am 22.6 - - - 1022.4 - - - - - - - - -
27/11:00am 21.6 - - - 1023.1 - - - - - - - - -
27/10:30am 21.1 - - - 1023.6 - - - - - - - - -
27/10:00am 20.4 - - - 1024.0 - - - - - - - - -
27/09:30am 19.8 - - - 1024.5 - - - - - - - - -
27/09:00am 18.8 - - - 1024.7 - - - - - - - - -
27/08:30am 17.6 - - - 1025.0 - - - - - - - - -
27/08:00am 16.2 - - - 1025.1 - - - - - - - - -
27/07:30am 16.3 - - - 1025.2 - - - - - - - - -
27/07:00am 15.7 - - - 1025.0 - - - - - - - - -
27/06:30am 15.2 - - - 1024.9 - - - - - - - - -
27/06:00am 15.4 - - - 1025.3 - - - - - - - - -
27/05:30am 15.4 - - - 1025.3 - - - - - - - - -
27/05:00am 15.2 - - - 1025.2 - - - - - - - - -
27/04:30am 15.1 - - - 1025.2 - - - - - - - - -
27/04:00am 15.3 - - - 1025.3 - - - - - - - - -
27/03:30am 15.6 - - - 1025.1 - - - - - - - - -
27/03:00am 15.2 - - - 1025.3 - - - - - - - - -
27/02:30am 15.1 - - - 1025.5 - - - - - - - - -
27/02:00am 15.1 - - - 1025.7 - - - - - - - - -
27/01:30am 15.4 - - - 1025.8 - - - - - - - - -
27/01:00am 15.6 - - - 1025.9 - - - - - - - - -
27/12:30am 15.6 - - - 1026.3 - - - - - - - - -
27/12:00am 16.0 - - - 1026.6 - - - - - - - - -
 
Date/Time
WST
Temp

°C
Wind Pressure Rain
since 9am
mm
Weather Cloud Vis
km
Sea
Height
m
Swell
Dir
 
Speed
knots
Gust
knots
hPa Trend Height
m
Period
s
Dir
26/11:30pm 15.8 - - - 1026.9 - - - - - - - - -
26/11:00pm 16.0 - - - 1027.1 - - - - - - - - -
26/10:30pm 16.3 - - - 1027.3 - - - - - - - - -
26/10:00pm 16.9 - - - 1027.3 - - - - - - - - -
26/09:30pm 17.0 - - - 1027.5 - - - - - - - - -
26/09:00pm 17.1 - - - 1027.4 - - - - - - - - -
26/08:30pm 17.5 - - - 1027.6 - - - - - - - - -
26/08:00pm 17.8 - - - 1027.6 - - - - - - - - -
26/07:30pm 18.3 - - - 1027.5 - - - - - - - - -
26/07:00pm 18.8 - - - 1027.2 - - - - - - - - -
26/06:30pm 18.7 - - - 1026.9 - - - - - - - - -
26/06:00pm 18.7 - - - 1026.6 - - - - - - - - -
26/05:30pm 18.9 - - - 1026.5 - - - - - - - - -
26/05:00pm 18.8 - - - 1026.5 - - - - - - - - -
26/04:30pm 19.2 - - - 1026.4 - - - - - - - - -
26/04:00pm 19.5 - - - 1026.6 - - - - - - - - -
26/03:30pm 19.7 - - - 1026.6 - - - - - - - - -
26/03:00pm 19.9 - - - 1026.7 - - - - - - - - -
26/02:30pm 20.1 - - - 1027.0 - - - - - - - - -
26/02:00pm 20.4 - - - 1027.2 - - - - - - - - -
26/01:30pm 20.4 - - - 1027.5 - - - - - - - - -
26/01:00pm 21.4 - - - 1027.9 - - - - - - - - -
26/12:30pm 20.4 - - - 1028.3 - - - - - - - - -
26/12:00pm 20.3 - - - 1028.7 - - - - - - - - -
26/11:30am 19.7 - - - 1029.3 - - - - - - - - -
26/11:00am 19.1 - - - 1029.9 - - - - - - - - -
26/10:30am 18.5 - - - 1030.4 - - - - - - - - -
26/10:00am 18.1 - - - 1030.8 - - - - - - - - -
26/09:30am 17.7 - - - 1031.1 - - - - - - - - -
26/09:00am 16.4 - - - 1031.3 - - - - - - - - -
26/08:30am 14.7 - - - 1031.4 - - - - - - - - -
26/08:00am 13.4 - - - 1031.2 - - - - - - - - -
26/07:30am 12.4 - - - 1031.0 - - - - - - - - -
26/07:00am 11.6 - - - 1030.8 - - - - - - - - -
26/06:30am 11.0 - - - 1030.5 - - - - - - - - -
26/06:00am 10.9 - - - 1030.1 - - - - - - - - -
26/05:30am 10.9 - - - 1030.0 - - - - - - - - -
26/05:00am 12.8 - - - 1029.7 - - - - - - - - -
26/04:30am 12.7 - - - 1029.6 - - - - - - - - -
26/04:00am 13.1 - - - 1029.5 - - - - - - - - -
26/03:30am 13.0 - - - 1029.4 - - - - - - - - -
26/03:00am 13.4 - - - 1029.5 - - - - - - - - -
26/02:30am 13.5 - - - 1029.6 - - - - - - - - -
26/02:00am 14.0 - - - 1029.6 - - - - - - - - -

Other Formats:

Comma delimited format used in spreadsheet applications
http://www.bom.gov.au/fwo/IDW60701/IDW60701.95648.axf

JavaScript Object Notation format (JSON) in row-major order
http://www.bom.gov.au/fwo/IDW60701/IDW60701.95648.json